Weather Roundup
Issued by NWS Springfield, MO

Home | Current Version | Previous Version | Text Only | Print | Product List | Glossary On
Versions: 1 2 3 4 5 6 7 8 9 10 11 12 13 14 15 16 17 18 19 20 21 22 23 24 25 26 27 28 29 30 31 32 33 34 35 36 37 38 39 40 41 42 43 44 45 46 47 48 49 50
000
NZUS99 KSGF 250359
HRRSGF

HOURLY WEATHER
NATIONAL WEATHER SERVICE SPRINGFIELD MO
1000 PM CST SAT JAN 24 2015

......SGF CWA......

CITY           SKY/WX    TMP DP  RH WIND       PRES   REMARKS
SPRINGFIELD    CLOUDY    50  32  50 SW16      29.79F
JOPLIN         CLOUDY    50  31  48 SW17      29.81F
WEST PLAINS    CLOUDY    48  30  49 SW12      29.83F
ROLLA          CLOUDY    47  31  53 S13       29.72F
OSAGE BEACH    CLOUDY    52  30  43 SW13      29.73F

......SURROUNDING SGF CWA......

CITY           SKY/WX    TMP DP  RH WIND       PRES   REMARKS
CHANUTE        CLOUDY    54  31  41 W14       29.80R
PARSONS        CLOUDY    51  31  46 SW8       29.81F
COFFEYVILLE    CLOUDY    53  31  42 SW16      29.80F
EMPORIA        CLOUDY    48  39  71 W7        29.77F
SILOAM SPRINGS PTCLDY    43  28  56 SW7       29.88F
HARRISON AR    MOCLDY    50  33  52 W14G24    29.85F
NEAR YELLVILLE MOCLDY    45  27  49 W3        29.85F

......KANSAS AND MISSOURI......

CITY           SKY/WX    TMP DP  RH WIND       PRES   REMARKS
KANSAS CTY INT LGT RAIN  47  41  80 W15G23    29.71R
DOWNTOWN KC    LGT RAIN  50  41  71 W14G20    29.72R
COLUMBIA       MOCLDY    46  33  60 SW9       29.69F
SEDALIA        CLOUDY    51  32  48 SW15      29.70F
ST JOSEPH      LGT RAIN  44  39  82 SW8       29.69F
ST LOUIS       CLOUDY    52  31  44 SW14      29.72F
SPIRIT OF STL  CLOUDY    52  31  44 SW9       29.70F
KIRKSVILLE     CLOUDY    46  31  55 SW8       29.64F
WICHITA        CLOUDY    55  33  43 W9        29.81F
TOPEKA         LGT RAIN  51  39  63 W8G17     29.73F
OLATHE         LGT RAIN  48  43  82 W8        29.73R

......TENNESSEE......

CITY           SKY/WX    TMP DP  RH WIND       PRES   REMARKS
MEMPHIS        CLEAR     42  34  73 SW6       29.91F
NASHVILLE      CLEAR     37  31  78 S7        29.90F WCI  32

......ARKANSAS.......

CITY           SKY/WX    TMP DP  RH WIND       PRES   REMARKS
FAYETTEVILLE   PTCLDY    40  32  73 S8        29.88F WCI  34
FT SMITH       CLEAR     42  32  67 W3        29.91S
LITTLE ROCK    CLEAR     46  32  58 CALM      29.93S

......OKLAHOMA.......

CITY           SKY/WX    TMP DP  RH WIND       PRES   REMARKS
TULSA          CLOUDY    54  33  45 SW8       29.85F
PONCA CITY     CLOUDY    52  31  44 W10       29.85F
MCALESTER      CLEAR     43  34  70 SW8       29.93F
OKLAHOMA CITY  MOCLDY    45  33  63 SW8       29.91F

......IOWA............

CITY           SKY/WX    TMP DP  RH WIND       PRES   REMARKS
DES MOINES     LGT RAIN  43  35  73 SW10      29.58F
QUAD CITIES    CLOUDY    34  30  85 E3        29.61F

......ILLINOIS........

CITY           SKY/WX    TMP DP  RH WIND       PRES   REMARKS
QUINCY         CLOUDY    41  31  67 SW9       29.65F
CHICAGO        CLOUDY    32  29  88 CALM      29.67F




USA.gov is the U.S. government's official web portal to all federal, state and local government web resources and services.